AWST,Max TemperatureF,Mean TemperatureF,Min TemperatureF,Max Dew PointF,MeanDew PointF,Min DewpointF,Max Humidity, Mean Humidity, Min Humidity, Max Sea Level PressureIn, Mean Sea Level PressureIn, Min Sea Level PressureIn, Max VisibilityMiles, Mean VisibilityMiles, Min VisibilityMiles, Max Wind SpeedMPH, Mean Wind SpeedMPH, Max Gust SpeedMPH,PrecipitationIn, CloudCover, Events, WindDirDegrees
2013-10-1,102,86,69,62,52,46,73,35,9,29.95,29.88,29.80,,,,12,8,,0.00,3,,196
2013-10-2,107,90,73,49,41,30,38,18,5,29.95,29.88,29.80,,,,16,11,,0.00,,,165
2013-10-3,108,94,81,66,40,25,48,18,4,29.92,29.86,29.74,,,,18,11,29,0.00,,,113
2013-10-4,99,85,71,73,64,52,94,53,14,29.89,29.85,29.79,,,,15,7,,0.00,3,,324
2013-10-5,99,84,68,72,63,54,83,52,25,29.92,29.83,29.74,,,,12,6,,0.00,4,,336
2013-10-6,104,86,69,72,63,51,83,52,12,29.89,29.79,29.70,,,,14,6,,0.00,5,,318
2013-10-7,100,82,65,73,68,64,100,60,25,29.86,29.78,29.71,,,,13,7,25,0.00,,,324
2013-10-8,105,87,69,73,63,46,100,54,8,29.89,29.82,29.74,,,,13,7,,0.00,4,,310
2013-10-9,106,88,70,73,59,43,78,45,7,29.92,29.83,29.74,,,,14,7,,0.00,,,259
2013-10-10,107,88,70,68,53,37,83,37,5,29.92,29.83,29.74,,,,16,10,24,0.00,,,189
2013-10-11,109,94,78,64,41,36,54,16,5,29.86,29.77,29.68,,,,20,12,32,0.00,,,167
2013-10-12,104,85,66,72,65,59,88,53,16,29.83,29.77,29.68,,,,12,6,,0.00,,,6
2013-10-13,105,90,76,77,69,57,100,60,17,29.86,29.78,29.71,,,,14,7,,0.00,4,,324
2013-10-14,104,88,71,72,65,57,88,47,17,29.89,29.82,29.73,,,,14,6,,0.00,5,,338
2013-10-15,102,88,75,72,68,59,83,52,16,29.98,29.90,29.82,,,,14,8,,0.00,4,,356
2013-10-16,102,87,72,72,65,61,83,53,20,30.01,29.92,29.80,,,,18,5,30,0.12,6,,312
2013-10-17,104,88,71,70,62,51,83,47,12,29.98,29.89,29.80,,,,12,6,,0.00,4,,301
2013-10-18,107,92,76,68,60,48,74,40,9,29.92,29.82,29.70,,,,16,8,25,0.00,3,,212
2013-10-19,103,92,80,77,69,56,89,54,15,29.89,29.83,29.76,,,,14,8,,0.00,3,,331
2013-10-20,105,90,74,74,65,52,83,49,11,29.89,29.81,29.71,,,,15,7,,0.00,4,,275
2013-10-21,104,87,70,72,61,51,73,45,10,29.86,29.78,29.70,,,,13,6,,0.00,5,,281
2013-10-22,107,92,76,70,52,43,74,30,7,29.86,29.78,29.71,,,,20,11,,0.00,6,,165
2013-10-23,107,91,75,48,42,37,34,17,5,29.89,29.81,29.71,,,,16,9,,0.00,,,138
2013-10-24,106,94,82,68,53,37,49,26,9,29.86,29.79,29.70,,,,15,11,,0.00,5,,69
2013-10-25,103,92,80,72,67,57,70,47,19,29.95,29.88,29.79,,,,13,8,,0.00,5,,334
2013-10-26,105,88,71,68,62,52,73,41,11,29.95,29.88,29.80,,,,12,6,,0.00,3,,292
2013-10-27,107,90,74,64,57,39,65,35,8,29.92,29.85,29.75,,,,12,5,,0.00,3,,296
2013-10-28,109,94,80,73,50,36,70,24,4,29.86,29.80,29.70,,,,18,10,,0.00,,,236
2013-10-29,104,90,76,75,68,46,89,56,8,29.89,29.82,29.71,,,,13,8,,0.00,,,330
2013-10-30,102,88,75,74,66,59,83,51,17,29.92,29.86,29.74,,,,16,9,,0.01,5,,354
2013-10-31,102,88,74,70,60,53,61,39,13,29.95,29.87,29.77,,,,20,11,31,0.00,5,,76